Overview Statistics Trail Chart Weather Telemetry Raw packets
 

This is the latest recevied weather packets stored in our database for station/object GW4003. If no packets are shown the sender has not sent any weather packets the latest 10 day(s).

<< 71 72 73 74 75 76 77 >>
Time Temp. Humidity Pressure Rain* Wind** Luminosity Snow
1788126891 21.11° C 56% 1021 hPa 0 mm - - -
1788126586 21.11° C 57% 1021.1 hPa 0 mm - - -
1788126282 20.56° C 57% 1021.1 hPa 0 mm - - -
1788125978 20.56° C 57% 1021.1 hPa 0 mm - - -
1788125677 20.56° C 60% 1021 hPa 0 mm - - -
1788125371 20.56° C 60% 1021.1 hPa 0.25 mm - - -
1788125066 20.56° C 62% 1021.3 hPa 1.02 mm - - -
1788124763 20.56° C 61% 1021.5 hPa 1.02 mm - - -
1788124459 21.11° C 60% 1021.5 hPa 1.02 mm - - -
1788124155 21.67° C 56% 1021.6 hPa 1.02 mm - - -
1788123852 21.67° C 53% 1021.6 hPa 1.02 mm - - -
1788123548 21.67° C 54% 1021.6 hPa 1.02 mm - - -
1788123244 21.67° C 52% 1021.4 hPa 1.02 mm - - -
1788122941 21.67° C 51% 1021.1 hPa 1.02 mm - - -
1788122637 22.22° C 52% 1021 hPa 1.02 mm - - -
1788122334 22.78° C 54% 1020.8 hPa 1.02 mm - - -
1788122030 23.89° C 54% 1020.7 hPa 1.02 mm - - -
1788121726 26.67° C 51% 1020.5 hPa 0.25 mm - - -
1788121422 27.78° C 36% 1020 hPa 0 mm - - -
1788121119 28.33° C 34% 1019.9 hPa 0 mm - - -
1788120815 28.89° C 32% 1019.4 hPa 0 mm - - -
1788120511 28.89° C 32% 1019.1 hPa 0 mm - - -
1788120207 28.33° C 32% 1018.9 hPa 0 mm - - -
1788119904 28.33° C 31% 1018.9 hPa 0 mm - - -
1788119600 28.33° C 31% 1018.7 hPa 0 mm - - -

* Rain latest hour (hover to see other rain measurements)
** Current wind speed in m/s (hover to see current wind gust speed)